sat.trackr.live / text

‹ back to catalog

KUIPER-00452

NORAD 68946 · 2026-098AD

PAYLOAD ACTIVE UNKNOWN

§ Identity

Operator
Country
US
Launch date
2026-04-30
Launch site
FRGUI
Launch vehicle
Mass (kg)
RCS (m²)

External: N2YO · Heavens-Above · Gunter

§ Orbital elements

Epoch: 2026-09-19T23:21:54.205056Z

Period
97.30 min
Inclination
51.9038°
Eccentricity
0.0000426
Mean motion
14.79931856 rev/d
Perigee alt
629.2 km
Apogee alt
629.8 km
Semi-major
7,007.7 km
B*
9.4565e-5
RAAN
351.5291°
Arg perigee
91.3959°
Mean anomaly
268.7052°
Rev number
2,162

§ Raw data

KUIPER-004521 68946U 26098AD  26262.97354404  .00000500  00000+0  94565-4 0  99992 68946  51.9038 351.5291 0000426  91.3959 268.7052 14.79931856 21629

JSON: /api/v1/satellites/68946 · /tle

For live sub-satellite position, see the globe view (requires WebGL).

§ Visibility from observer

Set your observer location to see the next 7 days of passes ≥ 10°. The values pass through the URL so the page stays shareable.

No JS? Fill the form by hand. The geolocation button needs JavaScript.